Regional Weather Roundup
Issued by NWS

Home | Current Version | Previous Version | Text Only | Print | Product List | Glossary Off
Versions: 1 2 3 4 5 6 7 8 9 10 11 12 13 14 15 16 17 18 19 20 21 22 23 24 25 26 27 28 29 30 31 32 33 34 35 36 37 38 39 40 41 42 43 44 45 46 47 48 49 50

399
ASUS44 KLIX 181205
RWRLA
LOUISIANA WEATHER ROUNDUP
NATIONAL WEATHER SERVICE NEW ORLEANS LA
600 AM CST THU DEC 18 2014

NOTE: "FAIR" INDICATES FEW OR NO CLOUDS BELOW 12,000 FEET WITH NO
      SIGNIFICANT WEATHER AND/OR OBSTRUCTIONS TO VISIBILITY.
      SKY/WX - SKY CONDITION AND SIGNIFICANT WEATHER.
      TMP - AIR TEMPERATURE.    DP   - DEWPOINT TEMPERATURE.
      RH  - RELATIVE HUMIDITY.  PRES - PRESSURE.
      HX  - HEAT INDEX.         WCI  - WIND CHILL INDEX.

*  THESE STATIONS ARE NOT NWS OR FAA STATIONS AND ARE NOT UNDER
   NWS QUALITY CONTROL.

LAZ040-048-061>063-065-066-069-181300-
SOUTHEAST LOUISIANA

CITY           SKY/WX    TMP DP  RH WIND       PRES   REMARKS
N.O. AUDUBON     N/A     53  50  89 MISG        N/A
6HR MIN TEMP:  52; 6HR MAX TEMP:  54;

N.O. INTL ARPT MOCLDY    52  47  83 E5        30.16S
6HR MIN TEMP:  48; 6HR MAX TEMP:  52;

N.O. LAKEFRONT PTCLDY    54  48  80 E9        30.17S
6HR MIN TEMP:  53; 6HR MAX TEMP:  56;

N.O. DOWNTOWN* FAIR      54  45  71 NE3       30.17R
6HR MIN TEMP:  54; 6HR MAX TEMP:  55;

SLIDELL        MOCLDY    43  40  89 CALM      30.16F
6HR MIN TEMP:  42; 6HR MAX TEMP:  45;

BATON ROUGE    PTCLDY    47  43  86 E8        30.14F
6HR MIN TEMP:  44; 6HR MAX TEMP:  47;

BOOTHVILLE     PTCLDY    56  52  86 NE6       30.17R
6HR MIN TEMP:  55; 6HR MAX TEMP:  56;

BELLE CHASSE   MOCLDY    46  45  96 NE3       30.16S
6HR MIN TEMP:  45; 6HR MAX TEMP:  51;

BOGALUSA*        N/A     44  41  87 CALM      30.20R
6HR MIN TEMP:  41; 6HR MAX TEMP:  44;

GALLIANO*      MOSUNNY   52  49  91 MISG      30.16R
6HR MIN TEMP:  51; 6HR MAX TEMP:  56;

NEW ROADS*     PTSUNNY   49  43  82 E5        30.14S
6HR MIN TEMP:  44; 6HR MAX TEMP:  49;

GONZALES*      PTSUNNY   48  47  96 CALM      30.15S
6HR MIN TEMP:  43; 6HR MAX TEMP:  48;

HAMMOND*       NOT AVBL
HOUMA*         PTCLDY    46  46 100 E3        30.15S
PORT FOURCHON* MOSUNNY   59  54  82 NE6       30.19R

$$

LAZ041-044-053-054-181300-
SOUTHWEST LOUISIANA

CITY           SKY/WX    TMP DP  RH WIND       PRES   REMARKS
LAKE CHARLES   CLOUDY    54  50  86 E7        30.08S
6HR MIN TEMP:  51; 6HR MAX TEMP:  54;

LAFAYETTE      MOCLDY    51  43  74 CALM      30.12S
6HR MIN TEMP:  48; 6HR MAX TEMP:  51;

PATTERSON      MOCLDY    54  45  71 E7        30.13S
6HR MIN TEMP:  48; 6HR MAX TEMP:  54;

SALT POINT       N/A     56  49  77 E6        30.11S
6HR MIN TEMP:  53; 6HR MAX TEMP:  56;

NEW IBERIA     CLOUDY    53  45  74 E6        30.12S
6HR MIN TEMP:  47; 6HR MAX TEMP:  53;

CHENAULT AIRPK CLOUDY    52  48  87 E6        30.09

$$

LAZ027-028-181300-
CENTRAL LOUISIANA

CITY           SKY/WX    TMP DP  RH WIND       PRES   REMARKS
FORT POLK      NOT AVBL
ALEXANDRIA INT CLOUDY    51  43  74 E7        30.11F
6HR MIN TEMP:  49; 6HR MAX TEMP:  51;

ALEXANDRIA     CLOUDY    51  43  74 CALM      30.13F
6HR MIN TEMP:  48; 6HR MAX TEMP:  51; 6HR PCP: TRACE;


$$

LAZ001-002-181300-
NORTHWEST LOUISIANA

CITY           SKY/WX    TMP DP  RH WIND       PRES   REMARKS
SHREVEPORT     CLOUDY    45  42  89 NE7       30.16R
6HR MIN TEMP:  44; 6HR MAX TEMP:  45; 6HR PCP:  0.06;

BARKSDALE AFB  NOT AVBL
DTN SHREVEPORT LGT RAIN  43  40  89 NE5       30.17R
6HR MIN TEMP:  43; 6HR MAX TEMP:  44; 6HR PCP:  0.06;


$$

LAZ014-016-181300-
NORTHEAST LOUISIANA

CITY           SKY/WX    TMP DP  RH WIND       PRES   REMARKS
MONROE         LGT RAIN  45  41  86 NE6       30.18R
6HR MIN TEMP:  45; 6HR MAX TEMP:  46; 6HR PCP: TRACE;

TALLULAH       CLOUDY    47  40  76 E7        30.18F
6HR MIN TEMP:  44; 6HR MAX TEMP:  47; 6HR PCP: TRACE;


$$




USA.gov is the U.S. government's official web portal to all federal, state and local government web resources and services.